EW9037 Weather Reports


Display with metric or nautical units.
time (UTC)temp
F
wind
direction
speed
MPH
gust
MPH
rain 1hr
in
rain 24hr
in
rain mn
in
humidity
%
barometer
mb
20181121140035 30 249 0.0 5.0 0.00 0.00 0.00 90 1028.8
20181121134546 29 196 2.0 4.0 0.00 0.00 0.00 91 1028.6
20181121133016 29 169 2.0 5.0 0.00 0.00 0.00 92 1028.4
20181121131521 28 228 1.0 3.0 0.00 0.00 0.00 93 1028.2
20181121130014 27 212 1.0 4.0 0.00 0.00 0.00 93 1028.2
20181121124538 26 206 0.0 3.0 0.00 0.00 0.00 93 1028.1
20181121123101 26 161 0.0 1.0 0.00 0.00 0.00 93 1028.1
20181121121517 26 177 0.0 1.0 0.00 0.00 0.00 93 1028.1
20181121120019 27 222 0.0 2.0 0.00 0.00 0.00 93 1028.1
20181121114505 27 210 0.0 3.0 0.00 0.00 0.00 93 1028.0
20181121113010 27 215 0.0 1.0 0.00 0.00 0.00 93 1027.9
20181121111507 27 200 0.0 2.0 0.00 0.00 0.00 92 1027.9
20181121110003 27 211 0.0 1.0 0.00 0.00 0.00 92 1027.9
20181121104700 27 214 0.0 0.0 0.00 0.00 0.00 92 1027.8
20181121103151 27 228 1.0 3.0 0.00 0.00 0.00 92 1027.7
20181121101650 27 219 0.0 3.0 0.00 0.00 0.00 92 1027.6
20181121100153 27 219 0.0 2.0 0.00 0.00 0.00 92 1027.5
20181121094624 28 225 0.0 1.0 0.00 0.00 0.00 91 1027.5
20181121093125 28 206 0.0 1.0 0.00 0.00 0.00 90 1027.5
20181121091655 29 228 1.0 4.0 0.00 0.00 0.00 89 1027.5
20181121090135 29 253 2.0 5.0 0.00 0.00 0.00 88 1027.4
20181121084628 30 259 2.0 5.0 0.00 0.00 0.00 88 1027.4
20181121083121 30 257 3.0 6.0 0.00 0.00 0.00 88 1027.4
20181121081646 30 259 2.0 7.0 0.00 0.00 0.00 88 1027.5
20181121080108 30 278 3.0 6.0 0.00 0.00 0.00 88 1027.6
20181121074646 30 266 5.0 9.0 0.00 0.00 0.00 87 1027.4
20181121073132 30 287 2.0 7.0 0.00 0.00 0.00 88 1027.2
20181121070056 30 281 2.0 4.0 0.00 0.00 0.00 88 1027.3
20181121054553 30 249 4.0 8.0 0.00 0.01 0.00 85 1027.0
20181121053036 31 281 3.0 8.0 0.00 0.01 0.00 85 1027.1
20181121051556 31 250 2.0 8.0 0.00 0.01 0.00 86 1027.2
20181121050045 31 261 4.0 8.0 0.00 0.01 0.00 86 1027.1
20181121044557 31 235 3.0 7.0 0.00 0.01 0.01 86 1026.9
20181121043044 31 276 3.0 11.0 0.00 0.01 0.01 86 1026.9
20181121041550 31 262 4.0 6.0 0.00 0.01 0.01 85 1027.0
20181121040044 31 278 4.0 8.0 0.00 0.01 0.01 85 1027.1
20181121034518 31 285 3.0 7.0 0.00 0.01 0.01 86 1027.0
20181121033037 31 267 2.0 8.0 0.00 0.01 0.01 86 1026.9
20181121031522 31 239 3.0 6.0 0.00 0.01 0.01 85 1026.8
20181121030042 31 249 3.0 7.0 0.00 0.01 0.01 84 1026.9
20181121024510 32 250 5.0 8.0 0.00 0.01 0.01 85 1026.9
20181121023010 32 267 1.0 4.0 0.00 0.01 0.01 84 1026.9
20181121021546 32 267 2.0 4.0 0.00 0.01 0.01 84 1026.9
20181121020011 32 267 2.0 4.0 0.00 0.01 0.01 83 1027.0
20181121014523 33 277 3.0 6.0 0.00 0.01 0.01 82 1026.9
20181121013001 33 255 3.0 5.0 0.00 0.01 0.01 83 1027.0
20181121011706 33 278 3.0 7.0 0.00 0.01 0.01 83 1026.9
20181121010206 33 298 2.0 5.0 0.00 0.01 0.01 83 1026.9
20181121004733 33 259 4.0 7.0 0.00 0.01 0.01 81 1026.9
20181121003257 33 306 3.0 6.0 0.00 0.01 0.01 80 1026.8
20181121001856 33 256 1.0 6.0 0.00 0.01 0.01 80 1026.8
20181121000214 34 273 3.0 6.0 0.00 0.01 0.01 80 1026.9
20181120234629 34 301 3.0 6.0 0.00 0.02 0.01 81 1026.8
20181120233151 34 271 4.0 6.0 0.00 0.02 0.01 80 1026.6
20181120231729 34 280 3.0 5.0 0.00 0.02 0.01 80 1026.5
20181120230135 34 239 3.0 6.0 0.00 0.02 0.01 80 1026.4
20181120224609 34 287 3.0 7.0 0.00 0.02 0.01 80 1026.3
20181120223201 34 301 3.0 9.0 0.00 0.02 0.01 79 1026.4
20181120221610 35 278 4.0 7.0 0.00 0.02 0.01 79 1026.3
20181120220127 35 290 1.0 5.0 0.00 0.02 0.01 80 1026.1
20181120214633 35 302 2.0 6.0 0.00 0.02 0.01 79 1026.0
20181120213145 35 295 4.0 8.0 0.00 0.02 0.01 78 1025.9
20181120211552 35 281 5.0 8.0 0.00 0.02 0.01 78 1025.9
20181120210202 36 281 5.0 9.0 0.00 0.02 0.01 78 1025.8
20181120204627 36 274 4.0 10.0 0.00 0.02 0.01 79 1025.7
20181120203102 35 253 2.0 7.0 0.00 0.02 0.01 79 1025.7
20181120201617 36 325 5.0 8.0 0.00 0.02 0.01 79 1025.7
20181120200050 36 280 6.0 9.0 0.00 0.02 0.01 80 1025.7
20181120194559 36 256 5.0 10.0 0.00 0.02 0.01 80 1025.7
20181120193052 36 297 5.0 9.0 0.00 0.02 0.01 80 1025.9
20181120191613 36 262 5.0 9.0 0.00 0.02 0.01 82 1025.9
20181120190042 36 292 5.0 10.0 0.00 0.02 0.01 80 1025.9
20181120184536 36 238 7.0 10.0 0.00 0.02 0.01 81 1025.8
20181120183106 36 319 6.0 11.0 0.00 0.02 0.01 83 1025.8
20181120181555 36 309 3.0 9.0 0.00 0.02 0.01 85 1025.8
20181120180036 36 279 5.0 11.0 0.00 0.02 0.01 83 1025.8
20181120174617 36 333 4.0 8.0 0.00 0.02 0.01 84 1025.8
20181120173051 36 305 5.0 8.0 0.00 0.02 0.01 82 1025.9
20181120171542 36 297 5.0 10.0 0.00 0.02 0.01 82 1025.9
20181120170031 36 301 5.0 11.0 0.00 0.02 0.01 83 1026.0
20181120164540 36 309 4.0 10.0 0.00 0.02 0.01 83 1026.0
20181120163028 36 297 7.0 12.0 0.00 0.02 0.01 83 1026.0
20181120161604 36 305 7.0 12.0 0.00 0.02 0.01 83 1026.0
20181120160026 37 301 6.0 13.0 0.00 0.02 0.01 83 1025.7
20181120154518 38 301 4.0 12.0 0.00 0.02 0.01 87 1025.4
20181120153026 37 311 2.0 8.0 0.00 0.02 0.01 88 1025.2
20181120151511 37 311 4.0 10.0 0.00 0.02 0.01 89 1025.0
20181120150011 37 297 4.0 11.0 0.00 0.02 0.01 90 1024.8
20181120143158 38 282 6.0 11.0 0.00 0.02 0.01 93 1024.2
20181120141813 38 287 3.0 7.0 0.00 0.02 0.01 94 1024.0